GW1938 Weather Reports


time (UTC)temp
C
wind
direction
speed
KPH
gust
KPH
rain 1hr
cm
rain 24hr
cm
rain mn
cm
humidity
%
barometer
mb
20260831035148 22 119 8.0 11.3 0.00 0.03 0.03 53 1027.4
20260831034647 22 123 9.7 12.9 0.00 0.03 0.03 53 1027.5
20260831034146 21 119 9.7 12.9 0.00 0.03 0.03 57 1027.5
20260831033141 21 110 9.7 11.3 0.00 0.03 0.03 55 1027.7
20260831032123 21 109 9.7 11.3 0.00 0.03 0.03 57 1027.8
20260831031622 21 101 9.7 14.5 0.00 0.03 0.03 58 1027.9
20260831031118 21 104 9.7 12.9 0.00 0.03 0.03 54 1027.9
20260831030616 21 102 8.0 11.3 0.00 0.03 0.03 54 1028.0
20260831030114 21 109 8.0 11.3 0.00 0.03 0.03 56 1028.0
20260831025613 22 111 9.7 11.3 0.00 0.03 0.03 57 1028.1
20260831025110 22 113 8.0 11.3 0.00 0.03 0.03 59 1028.2
20260831024608 22 116 8.0 11.3 0.00 0.03 0.03 53 1028.3
20260831024105 21 109 9.7 11.3 0.00 0.03 0.03 58 1028.3
20260831023604 22 106 9.7 12.9 0.00 0.03 0.03 56 1028.4
20260831023103 21 113 8.0 11.3 0.00 0.03 0.03 57 1028.5
20260831022602 21 110 9.7 11.3 0.00 0.03 0.03 58 1028.5
20260831022101 21 110 9.7 11.3 0.00 0.03 0.03 62 1028.7
20260831021600 20 101 9.7 12.9 0.00 0.03 0.03 60 1028.7
20260831020555 20 98 8.0 11.3 0.00 0.03 0.03 63 1028.9
20260831020054 19 82 9.7 11.3 0.00 0.03 0.03 65 1028.9
20260831015553 19 73 6.4 11.3 0.00 0.03 0.03 64 1029.0
20260831014549 20 28 3.2 8.0 0.03 0.03 0.03 59 1029.1
20260831014048 20 15 4.8 8.0 0.03 0.03 0.03 63 1029.2
20260831013546 20 12 4.8 6.4 0.03 0.03 0.03 65 1029.3
20260831012540 19 339 4.8 6.4 0.03 0.03 0.03 63 1029.3
20260831012038 19 329 4.8 6.4 0.03 0.03 0.03 66 1029.3
20260831011537 18 326 4.8 6.4 0.03 0.03 0.03 72 1029.3
20260831011036 18 319 6.4 9.7 0.03 0.03 0.03 69 1029.4
20260831010032 18 317 3.2 6.4 0.03 0.03 0.03 69 1029.5
20260831005531 18 339 3.2 6.4 0.03 0.03 0.03 70 1029.5
20260831005029 17 316 4.8 8.0 0.03 0.03 0.03 71 1029.5
20260831004528 17 276 6.4 12.9 0.00 0.00 0.00 72 1029.5
20260831004027 16 264 8.0 11.3 0.00 0.00 0.00 72 1029.6
20260831003526 16 258 8.0 12.9 0.00 0.00 0.00 74 1029.6
20260831003025 16 264 8.0 12.9 0.00 0.00 0.00 74 1029.6
20260831002021 16 281 6.4 12.9 0.00 0.00 0.00 72 1029.6
20260831001520 16 294 4.8 11.3 0.00 0.00 0.00 73 1029.6
20260831001018 16 282 6.4 11.3 0.00 0.00 0.00 73 1029.6
20260831000517 16 293 6.4 11.3 0.00 0.00 0.00 75 1029.7
20260830235513 16 315 8.0 17.7 0.00 0.00 0.00 75 1029.7
20260830235011 16 313 6.4 14.5 0.00 0.00 0.00 75 1029.7
20260830234006 15 298 4.8 11.3 0.00 0.00 0.00 76 1029.6
20260830233505 16 313 4.8 12.9 0.00 0.00 0.00 76 1029.6
20260830233004 15 306 4.8 11.3 0.00 0.00 0.00 79 1029.6
20260830232504 15 293 4.8 11.3 0.00 0.00 0.00 79 1029.6
20260830232003 15 288 6.4 14.5 0.00 0.00 0.00 78 1029.6
20260830231501 15 266 8.0 14.5 0.00 0.00 0.00 79 1029.6
20260830231000 15 267 9.7 14.5 0.00 0.00 0.00 80 1029.6
20260830230458 15 265 9.7 16.1 0.00 0.00 0.00 81 1029.5
20260830225937 14 270 8.0 14.5 0.00 0.00 0.00 81 1029.5
20260830225436 14 266 8.0 16.1 0.00 0.00 0.00 79 1029.5
20260830224431 14 267 9.7 16.1 0.00 0.00 0.00 84 1029.4
20260830223928 14 268 8.0 14.5 0.00 0.00 0.00 86 1029.5
20260830223427 14 266 9.7 14.5 0.00 0.00 0.00 87 1029.4
20260830222421 13 279 8.0 16.1 0.00 0.00 0.00 87 1029.4
20260830221920 13 274 9.7 14.5 0.00 0.00 0.00 87 1029.4
20260830220914 13 284 6.4 14.5 0.00 0.00 0.00 88 1029.4
20260830220413 13 280 8.0 11.3 0.00 0.00 0.00 89 1029.4
20260830215911 13 294 8.0 11.3 0.00 0.00 0.00 90 1029.4
20260830215410 13 286 8.0 12.9 0.00 0.00 0.00 90 1029.3
20260830214404 13 286 8.0 11.3 0.00 0.00 0.00 91 1029.3
20260830212856 13 301 6.4 12.9 0.00 0.00 0.00 93 1029.0
20260830212355 13 308 6.4 11.3 0.00 0.00 0.00 93 1029.0
20260830211853 12 292 6.4 11.3 0.00 0.00 0.00 93 1028.9
20260830211351 12 292 6.4 11.3 0.00 0.00 0.00 94 1028.8
20260830210850 12 298 6.4 12.9 0.00 0.00 0.00 95 1028.8
20260830210349 12 308 8.0 11.3 0.00 0.00 0.00 96 1028.8
20260830205848 12 300 6.4 11.3 0.00 0.00 0.00 98 1028.7
20260830205347 12 287 6.4 12.9 0.00 0.00 0.00 98 1028.7
20260830204846 12 287 8.0 12.9 0.00 0.00 0.00 98 1028.6
20260830204345 12 298 6.4 11.3 0.00 0.00 0.00 99 1028.5
20260830203340 11 305 6.4 9.7 0.00 0.00 0.00 99 1028.4
20260830201833 11 313 8.0 11.3 0.00 0.00 0.00 100 1028.3
20260830201332 11 310 6.4 11.3 0.00 0.00 0.00 100 1028.2
20260830200831 11 317 6.4 11.3 0.00 0.00 0.00 100 1028.2
20260830200329 11 322 6.4 12.9 0.00 0.00 0.00 100 1028.2
20260830195828 11 320 8.0 12.9 0.00 0.00 0.00 100 1028.1
20260830195326 12 320 8.0 12.9 0.00 0.00 0.00 100 1028.0
20260830194322 12 313 8.0 12.9 0.00 0.00 0.00 100 1027.9
20260830193821 12 279 9.7 12.9 0.00 0.00 0.00 100 1027.9
20260830193320 12 273 9.7 14.5 0.00 0.00 0.00 100 1027.9
20260830192819 12 261 11.3 14.5 0.00 0.00 0.00 100 1027.9
20260830192318 12 259 11.3 16.1 0.00 0.00 0.00 100 1027.8
20260830191314 12 259 11.3 14.5 0.00 0.00 0.00 99 1027.8
20260830190813 12 259 11.3 14.5 0.00 0.00 0.00 99 1027.8
20260830190302 12 265 9.7 14.5 0.00 0.00 0.00 99 1027.8
20260830185801 12 265 11.3 14.5 0.00 0.00 0.00 98 1027.8
20260830185300 12 266 11.3 14.5 0.00 0.00 0.00 98 1027.8
20260830184256 12 261 11.3 14.5 0.00 0.00 0.00 96 1027.9
20260830183755 12 265 11.3 16.1 0.00 0.00 0.00 96 1027.8
20260830182751 12 267 11.3 16.1 0.00 0.00 0.00 96 1027.8
20260830182250 12 266 11.3 16.1 0.00 0.00 0.00 96 1027.8
20260830181747 12 256 11.3 16.1 0.00 0.00 0.00 96 1027.8
20260830181246 12 253 11.3 16.1 0.00 0.00 0.00 97 1027.8
20260830180745 12 254 11.3 16.1 0.00 0.00 0.00 97 1027.8
20260830180244 12 253 11.3 16.1 0.00 0.00 0.00 97 1027.8
20260830175239 12 257 12.9 16.1 0.00 0.00 0.00 96 1027.7
20260830174235 12 258 12.9 17.7 0.00 0.00 0.00 95 1027.8
20260830173231 12 262 11.3 12.9 0.00 0.00 0.00 95 1027.7
20260830172730 12 264 9.7 12.9 0.00 0.00 0.00 95 1027.7
20260830172229 12 262 9.7 12.9 0.00 0.00 0.00 95 1027.7
20260830171727 12 267 11.3 12.9 0.00 0.00 0.00 96 1027.7
20260830171226 12 258 11.3 12.9 0.00 0.00 0.00 95 1027.6
20260830170725 12 258 11.3 12.9 0.00 0.00 0.00 95 1027.6
20260830170224 13 259 9.7 11.3 0.00 0.00 0.00 94 1027.7
20260830165723 13 262 9.7 12.9 0.00 0.00 0.00 94 1027.7
20260830164719 13 275 8.0 9.7 0.00 0.00 0.00 92 1027.7
20260830164218 13 271 8.0 9.7 0.00 0.00 0.00 91 1027.6
20260830163717 13 276 8.0 9.7 0.00 0.00 0.00 90 1027.7
20260830163216 13 283 8.0 8.0 0.00 0.00 0.00 89 1027.8
20260830162714 13 278 8.0 8.0 0.00 0.00 0.00 87 1027.8
20260830162212 13 265 8.0 9.7 0.00 0.00 0.00 87 1027.8
20260830161711 13 259 8.0 8.0 0.00 0.00 0.00 87 1027.9
20260830160203 13 253 9.7 11.3 0.00 0.00 0.00 85 1028.0
20260830155702 13 251 9.7 11.3 0.00 0.00 0.00 85 1028.0
20260830154657 12 239 8.0 9.7 0.00 0.00 0.00 89 1028.0
20260830154156 12 230 8.0 8.0 0.00 0.00 0.00 91 1028.0
20260830152646 12 220 6.4 8.0 0.00 0.00 0.00 95 1028.1
20260830152145 12 220 6.4 8.0 0.00 0.00 0.00 95 1028.1
20260830151644 13 228 4.8 6.4 0.00 0.00 0.00 95 1028.2
20260830151143 13 233 6.4 8.0 0.00 0.00 0.00 95 1028.2
20260830150137 13 234 4.8 6.4 0.00 0.00 0.00 93 1028.1
20260830145636 13 257 4.8 6.4 0.00 0.00 0.00 93 1028.2
20260830145134 13 276 4.8 6.4 0.00 0.00 0.00 93 1028.1
20260830144130 13 312 6.4 8.0 0.00 0.00 0.00 93 1028.2
20260830143629 13 297 6.4 9.7 0.00 0.00 0.00 93 1028.2
20260830143128 13 302 6.4 8.0 0.00 0.00 0.00 92 1028.2
20260830142627 13 314 4.8 6.4 0.00 0.00 0.00 91 1028.2
20260830142125 13 312 4.8 6.4 0.00 0.00 0.00 90 1028.2
20260830141624 13 288 4.8 6.4 0.00 0.00 0.00 90 1028.2
20260830141122 13 295 6.4 8.0 0.00 0.00 0.00 88 1028.2
20260830140621 13 291 6.4 8.0 0.00 0.00 0.00 87 1028.3
20260830135614 13 300 6.4 8.0 0.00 0.00 0.00 89 1028.2
20260830135110 13 312 6.4 8.0 0.00 0.00 0.00 90 1028.2
20260830134600 13 324 6.4 8.0 0.00 0.00 0.00 91 1028.2
20260830134058 13 336 6.4 8.0 0.00 0.00 0.00 90 1028.2
20260830133053 14 333 6.4 9.7 0.00 0.00 0.00 91 1028.3
20260830132039 13 1 4.8 6.4 0.00 0.00 0.00 86 1028.3
20260830131530 14 355 3.2 4.8 0.00 0.00 0.00 88 1028.4
20260830131020 14 354 4.8 6.4 0.00 0.00 0.00 85 1028.4
20260830130510 14 24 4.8 6.4 0.00 0.00 0.00 84 1028.3
20260830130003 14 54 3.2 3.2 0.00 0.00 0.00 85 1028.5
20260830124940 14 98 3.2 3.2 0.00 0.00 0.00 86 1028.4
20260830124438 14 104 3.2 3.2 0.00 0.00 0.00 87 1028.5
20260830123937 14 62 3.2 4.8 0.00 0.00 0.00 85 1028.4
20260830123436 14 71 3.2 4.8 0.00 0.00 0.00 87 1028.4
20260830122934 13 15 6.4 8.0 0.00 0.00 0.00 89 1028.3
20260830121930 13 356 3.2 4.8 0.00 0.00 0.00 92 1028.3
20260830121415 13 5 3.2 4.8 0.00 0.00 0.00 92 1028.1
20260830120909 13 7 3.2 6.4 0.00 0.00 0.00 93 1028.2
20260830120358 13 353 4.8 6.4 0.00 0.00 0.00 92 1028.1
20260830115801 13 338 4.8 6.4 0.00 0.00 0.00 91 1028.2
20260830115257 14 337 4.8 6.4 0.00 0.00 0.00 91 1028.2
20260830114755 14 1 3.2 3.2 0.00 0.00 0.00 92 1028.2
20260830114253 13 349 3.2 3.2 0.00 0.00 0.00 91 1028.2
20260830113750 13 3 3.2 4.8 0.00 0.00 0.00 92 1028.2
20260830113247 13 10 3.2 4.8 0.00 0.00 0.00 91 1028.3
20260830112745 13 24 4.8 8.0 0.00 0.00 0.00 91 1028.2
20260830111235 13 21 4.8 8.0 0.00 0.00 0.00 92 1028.2
20260830110733 13 10 4.8 6.4 0.00 0.00 0.00 92 1028.2
20260830105729 13 6 4.8 6.4 0.00 0.00 0.00 91 1028.3
20260830105227 14 6 4.8 6.4 0.00 0.00 0.00 90 1028.3
20260830104726 14 15 4.8 6.4 0.00 0.00 0.00 91 1028.3
20260830103720 14 2 3.2 6.4 0.00 0.00 0.00 90 1028.3
20260830103218 14 354 3.2 4.8 0.00 0.00 0.00 89 1028.3
20260830102713 14 351 3.2 4.8 0.00 0.00 0.00 88 1028.3
20260830102209 15 348 4.8 4.8 0.00 0.00 0.00 87 1028.2
20260830101707 15 349 4.8 6.4 0.00 0.00 0.00 85 1028.2
20260830101206 15 341 4.8 6.4 0.00 0.00 0.00 83 1028.3
20260830100705 15 344 4.8 6.4 0.00 0.00 0.00 81 1028.2
20260830095658 15 57 6.4 8.0 0.00 0.00 0.00 77 1028.1
20260830095154 15 66 8.0 8.0 0.00 0.00 0.00 77 1028.1
20260830094651 15 72 6.4 8.0 0.00 0.00 0.00 77 1028.1
20260830094150 15 71 6.4 6.4 0.00 0.00 0.00 77 1028.0
20260830093646 15 73 6.4 6.4 0.00 0.00 0.00 76 1027.9
20260830093143 15 86 6.4 6.4 0.00 0.00 0.00 76 1027.9
20260830092137 16 85 6.4 6.4 0.00 0.00 0.00 75 1027.8
20260830091633 16 82 6.4 8.0 0.00 0.00 0.00 74 1027.8
20260830091132 16 79 6.4 9.7 0.00 0.00 0.00 74 1027.8
20260830090631 16 79 6.4 8.0 0.00 0.00 0.00 73 1027.7
20260830090130 16 85 6.4 8.0 0.00 0.00 0.00 72 1027.7
20260830085125 16 91 6.4 8.0 0.00 0.00 0.00 73 1027.7
20260830084118 15 94 6.4 8.0 0.00 0.00 0.00 78 1027.6
20260830083617 14 109 8.0 9.7 0.00 0.00 0.00 78 1027.6
20260830083114 14 115 6.4 8.0 0.00 0.00 0.00 77 1027.6
20260830082108 15 117 8.0 11.3 0.00 0.00 0.00 77 1027.5
20260830081606 15 114 8.0 11.3 0.00 0.00 0.00 76 1027.5
20260830081103 15 120 8.0 9.7 0.00 0.00 0.00 75 1027.5
20260830080600 15 119 8.0 9.7 0.00 0.00 0.00 73 1027.4
20260830075554 15 128 8.0 11.3 0.00 0.00 0.00 71 1027.4
20260830075052 15 127 8.0 11.3 0.00 0.00 0.00 70 1027.3
20260830074551 16 127 8.0 11.3 0.00 0.00 0.00 70 1027.2
20260830073545 16 121 6.4 8.0 0.00 0.00 0.00 67 1027.1
20260830073043 16 120 6.4 8.0 0.00 0.00 0.00 67 1027.1
20260830072540 16 117 8.0 9.7 0.00 0.00 0.00 66 1027.0
20260830072037 16 119 6.4 8.0 0.00 0.00 0.00 63 1026.9
20260830071535 17 122 6.4 9.7 0.00 0.00 0.00 60 1026.9
20260830071034 18 120 8.0 9.7 0.00 0.00 0.00 59 1027.0
20260830070532 18 113 8.0 9.7 0.00 0.00 0.00 58 1026.9
20260830070030 18 118 8.0 12.9 0.00 0.00 0.00 59 1027.0
20260830065527 18 123 6.4 9.7 0.00 0.00 0.00 56 1027.0
20260830065026 19 123 8.0 11.3 0.00 0.00 0.00 55 1027.0
20260830064525 19 118 8.0 9.7 0.00 0.00 0.00 56 1027.0
20260830064024 19 116 8.0 11.3 0.00 0.00 0.00 56 1026.9
20260830063523 19 121 8.0 11.3 0.00 0.00 0.00 55 1026.9
20260830062519 20 123 6.4 9.7 0.00 0.00 0.00 53 1026.9
20260830062018 20 122 8.0 9.7 0.00 0.00 0.00 54 1026.8
20260830061013 20 118 8.0 11.3 0.00 0.00 0.00 54 1026.8
20260830060512 20 122 8.0 14.5 0.00 0.00 0.00 53 1026.8
20260830055506 20 122 9.7 14.5 0.00 0.00 0.00 54 1026.8
20260830055004 20 121 9.7 16.1 0.00 0.00 0.00 53 1026.9
20260830053959 21 116 9.7 12.9 0.00 0.00 0.00 54 1026.8
20260830053457 20 117 9.7 14.5 0.00 0.00 0.00 52 1026.8
20260830052956 21 119 9.7 12.9 0.00 0.00 0.00 50 1026.9
20260830051951 19 118 8.0 12.9 0.00 0.00 0.00 53 1027.0
20260830051450 19 118 6.4 12.9 0.00 0.00 0.00 53 1027.1
20260830050948 18 117 6.4 14.5 0.00 0.00 0.00 54 1027.1
20260830050445 18 115 8.0 14.5 0.00 0.00 0.00 54 1027.2
20260830045941 19 113 6.4 12.9 0.00 0.00 0.00 54 1027.2
20260830045439 20 117 6.4 12.9 0.00 0.00 0.00 52 1027.2
20260830044433 21 124 9.7 14.5 0.00 0.00 0.00 54 1027.1
20260830043931 21 117 8.0 12.9 0.00 0.00 0.00 52 1027.1
20260830042925 21 118 9.7 12.9 0.00 0.00 0.00 53 1027.1
20260830042424 20 117 6.4 12.9 0.00 0.00 0.00 57 1027.1
20260830041923 20 118 6.4 12.9 0.00 0.00 0.00 54 1027.2
20260830040735 21 126 9.7 16.1 0.00 0.00 0.00 53 1027.3